Terminal Aerodrome Forecast
Issued by NWS Twin Cities, MN

Home | Current Version | Previous Version | Graphics & Text | Print | Product List | Glossary On
Versions: 1 2 3 4 5 6 7 8 9 10 11 12 13 14 15 16 17 18
000
FTUS43 KMPX 242324
TAFEAU
TAF
KEAU 242324Z 2500/2524 15010KT P6SM BKN250
     FM250400 13007KT 1 1/2SM -SN BR OVC009
      TEMPO 2504/2508 1/2SM SN VV004
     FM251000 16005KT 3SM -SN BR OVC011
     FM251200 22004KT 6SM BR BKN015
     FM251500 25012G20KT P6SM BKN020=

USA.gov is the U.S. government's official web portal to all federal, state and local government web resources and services.